FW8640 Weather Reports


time (UTC)temp
C
wind
direction
speed
KPH
gust
KPH
rain 1hr
cm
rain 24hr
cm
rain mn
cm
humidity
%
barometer
mb
20260502164018 14 0.0 3.2 0.00 0.18 0.18 55 1019.2
20260502163018 14 0.0 3.2 0.00 0.18 0.18 55 1019.0
20260502162020 15 0 4.8 9.7 0.00 0.18 0.18 55 1019.1
20260502161020 15 0 6.4 17.7 0.00 0.18 0.18 55 1019.0
20260502152018 15 0 4.8 16.1 0.03 0.18 0.18 58 1019.3
20260502151018 15 0 3.2 8.0 0.03 0.18 0.18 57 1019.2
20260502123018 17 0 1.6 8.0 0.00 0.18 0.15 42 1020.3
20260502122019 16 0 1.6 6.4 0.00 0.18 0.15 40 1020.2
20260502121018 16 0 3.2 6.4 0.00 0.18 0.15 39 1020.2
20260502115017 17 0 3.2 6.4 0.00 0.18 0.15 37 1020.6
20260502114019 17 0 3.2 9.7 0.00 0.18 0.15 38 1020.6
20260502113041 16 0 4.8 8.0 0.00 0.18 0.15 39 1020.8
20260502112018 17 0 3.2 8.0 0.00 0.18 0.15 39 1021.0
20260502111018 16 0 8.0 16.1 0.00 0.18 0.15 39 1021.0
20260502110017 16 0 3.2 12.9 0.00 0.18 0.15 40 1021.0
20260502105018 17 0 3.2 9.7 0.00 0.18 0.15 39 1021.3
20260502104019 16 0 4.8 16.1 0.00 0.18 0.15 41 1021.5
20260502103017 16 0 3.2 9.7 0.00 0.18 0.15 43 1021.6
20260502102020 16 0 4.8 14.5 0.00 0.18 0.15 42 1021.8
20260502101019 15 0 1.6 4.8 0.00 0.18 0.15 44 1021.8
20260502091019 13 0 6.4 17.7 0.00 0.18 0.15 51 1022.1
20260502071019 13 0 3.2 12.9 0.00 0.18 0.15 63 1023.0
20260502070040 13 0 3.2 8.0 0.00 0.18 0.15 64 1023.0
20260502065042 12 0 3.2 9.7 0.00 0.18 0.15 65 1023.1
20260502064019 12 0 3.2 8.0 0.00 0.18 0.15 69 1023.0
20260502063019 12 0 1.6 3.2 0.00 0.18 0.15 69 1023.1
20260502062019 12 0 1.6 6.4 0.00 0.18 0.15 69 1023.1
20260502061019 12 0 1.6 4.8 0.00 0.18 0.15 69 1023.0
20260502060020 12 0 3.2 8.0 0.00 0.18 0.15 71 1022.9
20260502055042 11 0.0 4.8 0.00 0.18 0.15 72 1022.9
20260502054019 11 0.0 3.2 0.00 0.18 0.15 73 1023.3
20260502053020 11 0 3.2 6.4 0.00 0.18 0.15 74 1023.3
20260502052020 10 0 1.6 6.4 0.00 0.18 0.15 75 1023.2
20260502051021 10 0 3.2 8.0 0.00 0.18 0.15 75 1023.2
20260502050019 10 0 3.2 6.4 0.00 0.18 0.15 76 1023.1
20260502045020 10 0 4.8 8.0 0.00 0.18 0.15 76 1023.1
20260502044020 9 0 3.2 6.4 0.00 0.18 0.15 76 1022.9
20260502043020 9 0 4.8 9.7 0.00 0.18 0.15 76 1022.9
20260502042019 9 0 3.2 6.4 0.00 0.18 0.15 75 1022.7
20260502041020 9 0 4.8 9.7 0.00 0.18 0.15 75 1022.7
20260502040019 10 0 4.8 6.4 0.00 0.18 0.15 74 1022.7
20260502035019 10 0 4.8 9.7 0.00 0.18 0.15 74 1022.7
20260502034020 9 0 4.8 14.5 0.00 0.18 0.15 73 1022.8
20260502033019 9 0 4.8 9.7 0.00 0.18 0.15 74 1022.6
20260502032042 9 0 1.6 6.4 0.00 0.18 0.15 74 1022.6
20260502031019 9 0 1.6 3.2 0.00 0.18 0.15 75 1022.5
20260502030019 10 0 1.6 6.4 0.00 0.18 0.15 75 1022.6
20260502025020 10 0.0 3.2 0.00 0.18 0.15 75 1022.6
20260502024018 10 0 4.8 12.9 0.00 0.18 0.15 76 1022.6
20260502023042 9 0 3.2 9.7 0.00 0.18 0.15 77 1022.6
20260502022019 9 0 6.4 12.9 0.00 0.18 0.15 78 1022.7
20260502021018 9 0 1.6 4.8 0.00 0.18 0.15 78 1022.8
20260502020104 9 0 1.6 4.8 0.00 0.18 0.15 79 1022.8
20260502015019 9 0 1.6 4.8 0.00 0.18 0.15 79 1022.9
20260502014018 10 0 1.6 6.4 0.00 0.18 0.15 80 1023.2
20260502013019 9 0 4.8 9.7 0.00 0.18 0.15 80 1023.2
20260502012020 9 0 1.6 4.8 0.00 0.18 0.15 80 1023.3
20260502011020 10 0.0 1.6 0.00 0.18 0.15 80 1023.4
20260502010018 10 0.0 1.6 0.00 0.18 0.15 80 1023.2
20260502005102 10 0 1.6 4.8 0.00 0.18 0.15 80 1023.3
20260502004018 10 0.0 1.6 0.00 0.18 0.15 80 1023.1
20260502003018 10 0 1.6 4.8 0.00 0.18 0.15 80 1023.1
20260502002018 10 0 1.6 6.4 0.00 0.18 0.15 80 1023.1
20260502001041 10 0 3.2 6.4 0.00 0.18 0.15 81 1023.2
20260502000019 10 0 3.2 6.4 0.00 0.18 0.15 81 1023.2
20260501235019 10 0 3.2 6.4 0.00 0.18 0.15 81 1023.3
20260501234041 10 0 3.2 8.0 0.00 0.18 0.15 81 1023.4
20260501233018 10 0 3.2 6.4 0.00 0.18 0.15 80 1023.6
20260501232104 10 0 4.8 9.7 0.00 0.18 0.15 80 1023.6
20260501231018 10 0 3.2 6.4 0.00 0.18 0.15 80 1023.6
20260501230018 10 0.0 3.2 0.00 0.18 0.15 80 1023.7
20260501225039 10 0 3.2 8.0 0.03 0.18 0.15 79 1023.9
20260501224018 9 0 1.6 4.8 0.10 0.18 0.15 78 1023.9
20260501223017 9 0 1.6 6.4 0.13 0.18 0.15 78 1023.9
20260501222018 9 0 3.2 6.4 0.13 0.18 0.15 78 1024.1
20260501221018 10 0 1.6 3.2 0.15 0.18 0.15 79 1024.1
20260501215018 10 0 1.6 6.4 0.15 0.15 0.15 78 1024.5
20260501214102 10 0 6.4 16.1 0.05 0.08 0.05 78 1024.5
20260501213017 11 0 4.8 9.7 0.05 0.05 0.05 78 1024.3
20260501212017 11 0 1.6 8.0 0.05 0.05 0.05 77 1024.3
20260501211019 11 0 4.8 14.5 0.00 0.03 0.00 77 1024.2
20260501210103 11 0 4.8 8.0 0.00 0.03 0.03 77 1024.2
20260501205018 11 0 4.8 8.0 0.00 0.03 0.03 78 1024.0
20260501204018 11 0 1.6 4.8 0.00 0.03 0.03 78 1024.1
20260501203020 11 0 1.6 4.8 0.00 0.03 0.03 78 1024.1
20260501202018 11 0.0 1.6 0.00 0.03 0.03 78 1024.1
20260501201020 11 0.0 4.8 0.00 0.03 0.03 78 1024.1
20260501200018 11 0 1.6 6.4 0.00 0.03 0.03 78 1024.1
20260501195018 11 0.0 0.0 0.00 0.03 0.03 78 1024.1
20260501194020 11 0.0 0.0 0.00 0.03 0.03 78 1024.0
20260501193021 11 0.0 0.0 0.00 0.03 0.03 78 1024.0
20260501192018 11 0.0 0.0 0.00 0.03 0.03 78 1023.9
20260501191020 11 0.0 0.0 0.00 0.03 0.03 78 1023.9
20260501190018 11 0.0 3.2 0.00 0.03 0.03 78 1023.8
20260501185018 11 0.0 4.8 0.00 0.03 0.03 78 1023.6
20260501184043 11 0.0 3.2 0.00 0.03 0.03 78 1023.6
20260501183019 11 0 1.6 6.4 0.00 0.03 0.03 78 1023.5
20260501182018 11 0.0 1.6 0.00 0.03 0.03 78 1023.3
20260501181020 11 0 1.6 6.4 0.00 0.03 0.03 78 1023.1
20260501180019 11 0 1.6 6.4 0.00 0.03 0.03 77 1023.0